IVALO current weather conditions

sailwx.info

Wind from 090 at 4 knots

Air temperature -1.0° C
Visibility: greater than 1.9 NM
Dewpoint -2.0° C
Present weather: Light snow.

Last reported at 2015-Mar-31 05:50 UTC.
Time now 2015-Mar-31 06:44 UTC

Location: N 68°37' E 027°25'.
View on Google Maps.

See reports from other nearby stations

  
Tides and Currents Weather Stations Pressure Air Temp Water Temp Dewpoint Dewpoint Depression Visibility Wind Speed Wind Dir Waves Ship Positions
date/time (UTC)wind fromknots sea level pressurealtimeterstation pressurevisibilityair tempwater tempwave heightnotes
2015-Mar-31 05:50 090 4 1.9-1.0 Light snow.
2015-Mar-31 05:20 100 4 1.6-1.0 Light snow.
2015-Mar-31 04:50 090 3 1.6-1.0 Light snow.
2015-Mar-31 04:20 100 5 1.9-1.0 Light snow.
2015-Mar-31 03:57 080 2 1.9-1.0 Light snow.
2015-Mar-31 03:50 070 2 2.2-1.0 Light snow.
2015-Mar-31 03:20 080 3 2.7-1.0 Light snow.
2015-Mar-31 02:50 100 4 1.2-1.0 Light snow.
2015-Mar-31 02:20 110 5 1.9-0.0 Light snow showers.
2015-Mar-31 01:50 130 6 5.4-0.0 Light snow showers.
2015-Mar-31 01:20 110 3 5.4-0.0 Light snow.
2015-Mar-31 00:50 130 5 5.4-0.0 Light rain snow.
2015-Mar-31 00:20 150 7 4.3-0.0 Light rain.
2015-Mar-30 23:50 150 7 5.4 1.0
2015-Mar-30 23:20 160 6 5.4 1.0
2015-Mar-30 22:50 160 6 5.4 1.0
2015-Mar-30 22:20 160 7 5.4 1.0
2015-Mar-30 21:50 180 7 5.4 1.0
2015-Mar-30 21:20 180 8 5.4 1.0
2015-Mar-30 20:50 180 6 5.4 1.0
2015-Mar-30 20:20 180 8 5.4 1.0
2015-Mar-30 19:50 190 8 5.4 1.0
2015-Mar-30 19:20 180 8 5.4 1.0
2015-Mar-30 18:50 170 8 5.4 1.0
2015-Mar-30 18:20 170 8 5.4 2.0
2015-Mar-30 17:50 180 8 5.4 2.0
2015-Mar-30 17:20 160 10 5.4 2.0
2015-Mar-30 16:50 160 8 5.4 2.0
2015-Mar-30 16:20 170 9 5.4 2.0
2015-Mar-30 15:50 170 10 5.4 2.0
2015-Mar-30 15:20 170 11 5.4 2.0
2015-Mar-30 14:50 170 12 5.4 2.0
2015-Mar-30 14:20 170 10 5.4 2.0
2015-Mar-30 13:50 160 12 5.4 2.0
2015-Mar-30 13:20 160 11 5.4 2.0
2015-Mar-30 12:50 170 12 5.4 2.0
2015-Mar-30 12:20 160 11 5.4 2.0
2015-Mar-30 11:50 160 10 5.4 2.0
2015-Mar-30 11:20 160 12 5.4 2.0 Light rain showers.
2015-Mar-30 10:50 150 12 5.4 2.0
2015-Mar-30 10:20 160 10 5.4 1.0
2015-Mar-30 09:50 160 11 5.4 1.0
2015-Mar-30 09:20 160 11 5.4 1.0
2015-Mar-30 08:50 160 11 5.4 1.0 Light snow.
2015-Mar-30 08:20 150 7 4.3 1.0 Light snow.
2015-Mar-30 07:50 150 7 2.4-0.0 Light rain.
2015-Mar-30 07:20 140 7 2.2-0.0 Light rain.
2015-Mar-30 06:50 140 7 2.4-0.0 Light rain.
2015-Mar-30 06:20 160 8 2.6 1.0 Light rain.
2015-Mar-30 05:50 160 9 5.4 1.0
2015-Mar-30 05:20 150 9 5.4 1.0
2015-Mar-30 04:50 150 8 5.4 1.0
2015-Mar-30 04:20 150 8 5.4 1.0
2015-Mar-30 03:50 150 8 5.4 1.0
2015-Mar-30 03:20 150 9 5.4 1.0
2015-Mar-30 02:50 160 9 5.4 1.0
2015-Mar-30 02:20 150 10 5.4 1.0
2015-Mar-30 01:50 160 10 5.4 1.0
2015-Mar-30 01:20 150 9 5.4 1.0
2015-Mar-30 00:50 160 9 5.4 1.0
2015-Mar-30 00:20 160 8 5.4-0.0
2015-Mar-29 23:50 170 9 5.4 1.0
2015-Mar-29 23:20 170 9 5.4 1.0
2015-Mar-29 22:50 170 8 5.4 1.0
2015-Mar-29 22:20 170 7 5.4 1.0
2015-Mar-29 21:50 170 8 5.4 1.0
2015-Mar-29 21:20 180 8 5.4 1.0
2015-Mar-29 20:50 170 8 5.4 1.0
2015-Mar-29 20:20 170 8 5.4 1.0
2015-Mar-29 19:50 170 9 5.4 1.0
2015-Mar-29 19:20 170 9 5.4 1.0
2015-Mar-29 18:50 170 8 5.4 1.0
2015-Mar-29 18:20 190 8 5.4 1.0
2015-Mar-29 17:50 180 10 5.4 1.0
2015-Mar-29 17:20 180 8 5.4 1.0
2015-Mar-29 16:50 170 7 5.4 1.0
2015-Mar-29 16:20 170 9 gusting 19 5.4 1.0
2015-Mar-29 15:50 170 8 5.4 1.0
2015-Mar-29 15:20 160 7 5.4-0.0
2015-Mar-29 14:50 150 7 5.4-0.0
2015-Mar-29 14:20 160 7 5.4-0.0
2015-Mar-29 13:50 150 7 5.4-0.0
2015-Mar-29 13:20 160 7 5.4-0.0
2015-Mar-29 12:50 180 8 5.4-0.0
2015-Mar-29 12:20 170 13 5.4-0.0
2015-Mar-29 11:50 180 9 5.4-1.0
2015-Mar-29 11:20 170 9 5.4-1.0
2015-Mar-29 10:50 170 8 5.4-1.0
2015-Mar-29 10:22 190 9 5.4-1.0 Light snow grains.
2015-Mar-29 09:50 170 10 5.4-1.0 Light snow grains.
2015-Mar-29 09:20 170 8 5.4-1.0 Light snow grains.
2015-Mar-29 08:50 160 9 5.4-0.0 Light snow grains.
2015-Mar-29 08:20 160 9 3.2-1.0 Light snow grains.
2015-Mar-29 07:52 160 7 5.4-1.0
2015-Mar-29 07:20 170 8 5.4-1.0
2015-Mar-29 06:50 200 8 5.4-1.0
2015-Mar-29 06:20 180 7 5.4-1.0